Hourly Weather Roundup
Issued by NWS

Home | Current Version | Previous Version | Text Only | Print | Product List | Glossary On
Versions: 1 2 3 4 5 6 7 8 9 10 11 12 13 14 15 16 17 18 19 20 21 22 23 24 25 26 27 28 29 30 31 32 33 34 35 36 37 38 39 40 41 42 43 44 45 46 47 48 49 50
000
NZUS43 KILX 231110
HWRCRS

NWR Hourly Weather Roundup
National Weather Service Lincoln IL
500 AM CST THU FEB 23 2017


CITY           SKY/WX    TMP DP  RH WIND       PRES   REMARKS
Champaign      FOG       47  45  93 SW6       29.74R VSB 1/4
Lawrenceville  PTCLDY    51  51 100 S9        29.77S
Peoria         CLEAR     49  46  90 N6        29.73R
Springfield    FOG       44  43  96 CALM      29.74S VSB 1/4
$$


CITY           SKY/WX    TMP DP  RH WIND       PRES   REMARKS
Bloomington    FOG       43  43 100 SW5       29.75R VSB 1/4
Decatur        FOG       47  45  93 CALM      29.74R VSB 1/4
Effingham      FOG       51  51 100 CALM      29.77S VSB 1/4
Flora          FOG       51  51  98 SE3       29.76S VSB 1/4
Galesburg      CLEAR     41  40  98 N5        29.74R
Jacksonville   FOG       41  41 100 CALM      29.72F VSB 1/4
Lacon          CLEAR     43  43 100 CALM      29.73R
La Salle       CLEAR     43  40  91 NW7       29.73S
Lincoln        FOG       42  42 100 CALM      29.74R VSB<1/4
Litchfield     FOG       46  46 100 SE5       29.73S VSB 1/2

CITY           SKY/WX    TMP DP  RH WIND       PRES   REMARKS
Macomb         CLEAR     43  42  95 N5        29.75F
Mattoon        CLEAR     53  53 100 S6        29.74S
Moline         CLOUDY   N/A N/A N/A N9        29.74F
Olney          FOG       52  52 100 CALM      29.77R VSB 1/2
Paris          CLEAR     53  52  97 SW8       29.76S
Pontiac        PTCLDY    47  46  98 NW7       29.73R
Quincy         PTCLDY    43  41  93 NE7       29.73S
Rantoul        FOG       48  47  99 CALM      29.74R VSB 1/4
Robinson       CLOUDY    52  52 100 CALM      29.78R FOG
Taylorville    FOG       48  48  99 CALM      29.74R VSB 3/4
Terre Haute    PTCLDY    54  51  90 VRB5      29.76S
$$


CITY           SKY/WX    TMP DP  RH WIND       PRES   REMARKS
Burlington     CLEAR     43  41  93 N8        29.73S
Chicago        CLEAR     50  44  80 W7        29.70R
Des Moines     CLOUDY    40  36  86 N15G22    29.81R WCI  32
Evansville     MOCLDY    56  53  90 CALM      29.79S
Indianapolis   MOCLDY    55  53  93 SW8       29.76S
Kansas City    CLOUDY    50  41  71 NE13      29.69S
Milwaukee      CLEAR     49  41  74 NW10G25   29.70R
St Louis       PTCLDY    52  49  89 CALM      29.73S
$$





USA.gov is the U.S. government's official web portal to all federal, state and local government web resources and services.